Погода в Боровичи

Погода в Боровичи : погода сейчас, прогноз погоды и архив. Всё, что Вы хотите узнать о погоде в Боровичи!

Поиск расширенной информации на нашем сайте:

Другие новости

Новости СМИ2

Главная страница сайта

Новости сайта

03.07.2017

Напоминаем, что на нашем специализированном сайте Метеоцентр.Азия вы можете получить высокодетализированные автоматические прогнозы погоды по пунктам России, СНГ и мира в авиационном формате (включающие направление и скорость ветра, видимость, явления погоды, количество и форму облачности, нижнюю и верхнюю границу облачности).

Рекомендуем: Поставка запчастей КамАЗ. Смотреть спецпредложение на запчасти камаз

Погода в Боровичи - сегодня

Время (UTC), дата Ветер
(°,м/с) 
Видим.   Явления Облачность Т
(°С)
Тd
(°С)
f(%) Тe
(°С)
Pmin
(гПа)
dP
(гПа)
Po
(мм)
O2
(г/м3)
Тmin Tmax R s Состояние
почвы
21 12.02.18 130 (ЮВ) 20000 м    10/0 средняя 
[Ac As]
-2.8 -7.2 72 -2  1021.4  0.8  758  309           
00 13.02.18 130 (ЮВ) 20000 м    10/0 средняя 
[Ac As]
-3.3 -7.4 73 -4  1022  0.8  758  310           
03 13.02.18 120 (ЮВ) 20000 м    ясно 
-6.1 -9.4 77 -8  1022.9  0.8  759  314  -6.1         
09 13.02.18 130 (ЮВ) 20000 м    ясно 
-6.6 -12.5 63 -8  1024.9  0.8  760  315           
12 13.02.18 130 (ЮВ) 20000 м    ясно 
-2.9 -10.7 55 -4  1024.3  -0.4  760  310           
15 13.02.18 130 (ЮВ) 20000 м    3/3 600 м 
[Sc]
-5.1 -10.7 65 -5  1024.9  0.5  760  313           
21 13.02.18 100 (В) 20000 м    8/4 300 м средняя 
[Sc|Ac As]
-8.2 -10.8 81 -8  1027.1  762  317           
00 14.02.18 110 (В) 20000 м    6/6 600 м 
[Sc]
-10 -11.7 87 -10  1028  0.8  762  320           
03 14.02.18 110 (В) 20000 м    ясно 
-11.1 -12.6 89 -11  1029.1  1.1  763  322  -11.1         
09 14.02.18 140 (ЮВ) 20000 м    1/0 верхняя 
[Cc]
-8.7 -12.5 74 -10  1031.4  1.1  765  319           
12 14.02.18 150 (ЮВ) 20000 м    3/0 верхняя 
[Cc]
-5.2 -11.4 62 -7  1031.1  0.1  765  315           
15 14.02.18 120 (ЮВ) 20000 м    3/0 верхняя 
[Ci fib]
-6.5 -11.2 69 -6  1031.5  0.3  765  317           
18 14.02.18 150 (ЮВ) 20000 м    ясно 
-9.5 -12.1 81 -9  1032.5  0.3  766  321    -5.1       
21 14.02.18 130 (ЮВ) 20000 м    ясно 
-10.4 -12.3 86 -10  1033.1  0.6  766  322           
00 15.02.18 100 (В) 20000 м    ясно 
-12 -13.4 89 -12  1033.6  0.4  766  324           
03 15.02.18 150 (ЮВ) 20000 м    ясно 
-14.5 -16 88 -15  1034.1  0.3  767  328  -14.5         
09 15.02.18 140 (ЮВ) 20000 м    3/0 верхняя 
[Cc]
-10 -13.3 77 -12  1035  0.4  767  322           
12 15.02.18 130 (ЮВ) 20000 м    8/4 300 м средняя 
[Sc|Ac As]
-7 -11.1 73 -8  1033.9  -0.9  767  318           
15 15.02.18 150 (ЮВ) 20000 м    8/4 600 м средняя 
[Sc|Ac As]
-6.7 -10.3 75 -6  1033.2  -0.7  766  318           
21 15.02.18 130 (ЮВ) 20000 м    10/8 600 м средняя 
[Sc|Ac und]
-7.6 -10.3 81 -9  1031.8  -1  765  318           
09 16.02.18 170 (Ю) 10 км  слаб. ливневой снег  9/3 300 м кучево-дожд., средняя, верхняя 
[Cb calv|Ac trans|Ci fib]
-4.7 -7.8 79 -6  1028.9  -0.2  763  314           
15 16.02.18 130 (ЮВ) 20000 м    9/4 300 м средняя, верхняя 
[Sc|Ac trans|Ci fib]
-4.6 -6.8 85 -4  1027.5  -0.8  762  313         
09 17.02.18 130 (ЮВ) 10 км  слаб. ливневой снег  10/8 300 м кучево-дожд., средняя 
[Cb calv|Ac As]
-3.3 -5.9 82 -3  1022.5  -0.9  758  310           
21 17.02.18 130 (ЮВ) 10 км  слаб. ливневой снег  10/8 300 м кучево-дожд., средняя 
[Cb calv|Ac As]
-3.5 -5 89 -3  1020.6  -0.3  757  310           
03 18.02.18 100 (В) 10 км  слаб. ливневой снег  10/10 210 м кучево-дожд. 
[Cb calv]
-5.8 -6.7 93 -5  1020  -0.4  756  312  -5.8       
Время (UTC), дата Ветер
(°,м/с) 
Видим.   Явления Облачность Т
(°С)
Тd
(°С)
f(%) Тe
(°С)
Pmin
(гПа)
dP
(гПа)
Po
(мм)
O2
(г/м3)
Тmin Tmax R s Состояние
почвы

Для получения пояснительной информации подведите курсор к названию столбца.

ПОГОДА в Боровичи - архив

Всё, что Вы хотите узнать о погоде в Боровичи - удобно и подробно!

Выберите нужную дату (начиная с 1 января 2015* года) и нажмите кнопку "Найти".
Будут отображены архивные сводки погоды по пункту Боровичи, начиная с указанной даты.


Отображать данные в формате CSV (для использования в таблицах Excel)


Внимание! Наш архив погоды предназначен исключительно для личного некоммерческого использования в познавательных целях. Если Вам необходимы официальные справки о состоянии погоды (для производственных, юридических, коммерческих и т.п. целей), обращайтесь в органы Росгидромета.

*Примечание: данная дата относится к архиву по метеостанциям СССР (Россия, СНГ, Балтия).
Архив по метеостанциям Зарубежной Европы и Азии (кроме Китая) хранится 10 дней, по другим регионам земного шара (Китай, Африка, Америка, Австралия, Океания) - 1 день.

Боровичи - район местоположения метеостанции


Название, широта, долгота, высота метеостанции:
Боровичи 58.4°ш. 33.9°д. 89 м над ур. моря [Российская Федерация]

Дополнительная информация

В oтличие oт бoльшинства пoгoдных сайтoв мы публикуем пoдрoбную метеoинфoрмацию в детальнoм прoфессиoнальнoм фoрмате.

Характеристики температуры и влажнoсти вoздуха измеряются на высoте 2 м в тени вдали oт зданий и деревьев.
Скoрoсть ветра измеряется на высoте 10 м (на урoвне рoста челoвека скoрoсть ветра ниже в 1.5-2 раза). Если метеoстанция нахoдится в гoрoде или в лесу, тo скoрoсть ветра занижена на 2-4 м/с пo сравнению с oткрытым местoм. Скoрoсть ветра над акватoриями крупных рек и oзёр, а также на вершинах хoлмoв на 2-5 м/с выше, чем в oбычных услoвиях.
Атмoсфернoе давление в разных тoчках местнoсти мoжет значительнo oтличаться oт давления на метеoстанции, в зависимoсти oт услoвий рельефа (при пoдъёме на 10 м давление пoнижается примернo на 1 мм рт.ст.).